Weather History for Rochester, NH

Change the Weather History Date:

Tuesday, June 18, 2013

  Actual Average (KSFM) Record (KSFM)
Temperature  
Mean Temperature 62 °F -  
Max Temperature 68 °F 74 °F 91 °F (2006)
Min Temperature 57 °F 51 °F 44 °F (2012)
Degree Days  
Heating Degree Days 4    
Growing Degree Days 12 (Base 50)    
Moisture  
Dew Point 56 °F    
Average Humidity 84    
Maximum Humidity 93    
Minimum Humidity 63    
Precipitation  
Precipitation 0.05 in - - ()
Sea Level Pressure  
Sea Level Pressure 29.92 in    
Wind  
Wind Speed 2 mph (NNW)    
Max Wind Speed 7 mph    
Max Gust Speed -    
Visibility 10 miles    
Events Rain    
Averages and records for this station are not official NWS values.
T = Trace of Precipitation, MM = Missing Value Source: NWS Daily Summary

Daily Weather History Graph

Daily Weather History Graph

Search for Another Location

Airport:

Trip Planner

Search our weather history database for the weather conditions in past years. The results will help you decide how hot, cold, wet, or windy it might be!

Date:

Astronomy

Jun. 18, 2013 Rise Set
Actual Time 5:03 AM EDT 8:26 PM EDT
Civil Twilight 4:27 AM EDT 9:02 PM EDT
Nautical Twilight 3:40 AM EDT 9:48 PM EDT
Astronomical Twilight 2:42 AM EDT 10:47 PM EDT
Moon 3:01 PM EDT (6/18) 1:17 AM EDT (6/18)
Length of Visible Light 16h 34m
Length of Day
15h 23m
Waxing Gibbous, 70% of the Moon is Illuminated
Jun 18
Waxing Gibbous
Jun 23
Full
Jun 30
Last Quarter
Jul 8
New
Jul 15
First Quarter

Hourly Weather History & Observations

Time (EDT) Temp. Dew Point Humidity Pressure Visibility Wind Dir Wind Speed Gust Speed Precip Events Conditions
12:51 AM 63.0 °F 59.0 °F 87% 29.87 in 10.0 mi Variable 3.5 mph - N/A   Clear
1:51 AM 62.1 °F 59.0 °F 90% 29.86 in 10.0 mi WNW 3.5 mph - N/A   Mostly Cloudy
2:51 AM 61.0 °F 57.9 °F 90% 29.86 in 10.0 mi Calm Calm - 0.00 in   Clear
3:51 AM 59.0 °F 55.9 °F 90% 29.87 in 10.0 mi Calm Calm - N/A   Clear
4:51 AM 57.0 °F 55.0 °F 93% 29.88 in 10.0 mi Calm Calm - N/A   Clear
5:51 AM 57.9 °F 55.0 °F 90% 29.89 in 10.0 mi Calm Calm - N/A   Clear
6:51 AM 60.1 °F 57.9 °F 93% 29.91 in 10.0 mi NNW 3.5 mph - N/A   Clear
7:51 AM 62.1 °F 57.0 °F 84% 29.92 in 10.0 mi NW 5.8 mph - N/A   Clear
8:51 AM 66.0 °F 55.0 °F 68% 29.93 in 10.0 mi NNW 4.6 mph - N/A   Clear
9:51 AM 66.9 °F 54.0 °F 63% 29.94 in 10.0 mi Calm Calm - N/A   Partly Cloudy
10:51 AM 66.0 °F 54.0 °F 65% 29.94 in 10.0 mi Calm Calm - 0.00 in Rain Light Rain
11:51 AM 63.0 °F 57.9 °F 84% 29.94 in 4.0 mi Calm Calm - 0.04 in Rain Light Rain
12:51 PM 62.1 °F 57.0 °F 84% 29.96 in 10.0 mi NW 6.9 mph - 0.01 in   Overcast
1:51 PM 63.0 °F 57.0 °F 81% 29.95 in 10.0 mi North 3.5 mph - N/A   Overcast
2:51 PM 62.1 °F 55.0 °F 78% 29.93 in 10.0 mi Calm Calm - N/A   Overcast
3:51 PM 62.1 °F 55.9 °F 80% 29.93 in 10.0 mi North 4.6 mph - N/A   Overcast
4:44 PM 62.6 °F 55.4 °F 77% 29.94 in 10.0 mi Calm Calm - N/A   Overcast
4:51 PM 62.1 °F 55.9 °F 80% 29.93 in 10.0 mi Calm Calm - N/A   Overcast
5:00 PM 62.6 °F 55.4 °F 77% 29.94 in 10.0 mi Calm Calm - N/A   Overcast
5:51 PM 62.1 °F 57.0 °F 84% 29.93 in 10.0 mi Calm Calm - N/A   Overcast
6:51 PM 62.1 °F 55.9 °F 80% 29.93 in 10.0 mi Calm Calm - N/A   Overcast
6:59 PM 62.6 °F 55.4 °F 77% 29.93 in 10.0 mi Calm Calm - N/A   Overcast
7:24 PM 60.8 °F 57.2 °F 88% 29.94 in 10.0 mi East 3.5 mph - N/A   Overcast
7:51 PM 60.1 °F 57.0 °F 90% 29.92 in 10.0 mi Calm Calm - N/A   Overcast
8:17 PM 60.8 °F 57.2 °F 88% 29.93 in 10.0 mi Calm Calm - N/A   Overcast
8:28 PM 60.8 °F 57.2 °F 88% 29.93 in 10.0 mi Calm Calm - N/A   Overcast
8:51 PM 60.1 °F 57.0 °F 90% 29.92 in 10.0 mi Calm Calm - N/A   Overcast
9:49 PM 60.8 °F 57.2 °F 88% 29.94 in 10.0 mi Calm Calm - N/A   Overcast
9:51 PM 60.1 °F 57.0 °F 90% 29.94 in 10.0 mi Calm Calm - N/A   Overcast
10:51 PM 59.0 °F 55.9 °F 90% 29.92 in 10.0 mi Calm Calm - N/A   Overcast
11:51 PM 57.9 °F 55.9 °F 93% 29.92 in 10.0 mi Calm Calm - N/A   Overcast